TimeCDT,TemperatureF,Dew PointF,Humidity,Sea Level PressureIn,VisibilityMPH,Wind Direction,Wind SpeedMPH,Gust SpeedMPH,PrecipitationIn,Events,Conditions,WindDirDegrees,DateUTC
12:55 AM,64.4,50.0,59,29.92,10.0,SSW,8.1,-,N/A,,Clear,200,2012-11-03 05:55:00
1:15 AM,66.2,50.0,56,29.92,10.0,SSW,8.1,-,N/A,,Clear,200,2012-11-03 06:15:00
1:35 AM,66.2,50.0,56,29.92,10.0,South,6.9,-,N/A,,Clear,190,2012-11-03 06:35:00
2:35 AM,64.4,50.0,59,29.92,10.0,SSW,5.8,-,N/A,,Clear,200,2012-11-03 07:35:00
2:55 AM,64.4,51.8,64,29.93,10.0,SW,5.8,-,N/A,,Clear,220,2012-11-03 07:55:00
3:15 AM,64.4,51.8,64,29.93,10.0,SW,8.1,-,N/A,,Clear,220,2012-11-03 08:15:00
3:36 AM,64.4,51.8,64,29.94,10.0,SW,8.1,-,N/A,,Clear,230,2012-11-03 08:36:00
4:15 AM,62.6,51.8,68,29.94,10.0,SW,6.9,-,N/A,,Clear,220,2012-11-03 09:15:00
4:35 AM,62.6,51.8,68,29.94,10.0,SSW,8.1,-,N/A,,Clear,210,2012-11-03 09:35:00
4:55 AM,62.6,51.8,68,29.94,10.0,SSW,8.1,-,N/A,,Clear,210,2012-11-03 09:55:00
5:15 AM,62.6,51.8,68,29.95,10.0,WSW,8.1,-,N/A,,Clear,240,2012-11-03 10:15:00
5:35 AM,60.8,51.8,72,29.96,10.0,West,6.9,-,N/A,,Clear,260,2012-11-03 10:35:00
5:55 AM,59.0,50.0,72,29.98,10.0,WNW,10.4,-,N/A,,Clear,290,2012-11-03 10:55:00
6:15 AM,57.2,46.4,67,29.99,10.0,WNW,11.5,-,N/A,,Clear,290,2012-11-03 11:15:00
6:35 AM,53.6,46.4,77,30.00,10.0,WNW,8.1,-,N/A,,Clear,300,2012-11-03 11:35:00
6:55 AM,51.8,44.6,76,30.01,10.0,WNW,6.9,-,N/A,,Clear,300,2012-11-03 11:55:00
7:16 AM,50.0,41.0,71,30.02,10.0,NW,8.1,-,N/A,,Clear,310,2012-11-03 12:16:00
7:35 AM,48.2,41.0,76,30.03,10.0,NW,6.9,-,N/A,,Clear,310,2012-11-03 12:35:00
7:55 AM,48.2,39.2,71,30.04,10.0,NNW,4.6,-,N/A,,Clear,330,2012-11-03 12:55:00
8:35 AM,48.2,37.4,66,30.06,10.0,NNW,5.8,-,N/A,,Clear,340,2012-11-03 13:35:00
8:55 AM,48.2,37.4,66,30.08,10.0,NNW,5.8,-,N/A,,Clear,340,2012-11-03 13:55:00
9:15 AM,48.2,37.4,66,30.09,10.0,North,9.2,-,N/A,,Clear,350,2012-11-03 14:15:00
9:36 AM,50.0,35.6,58,30.10,10.0,North,9.2,-,N/A,,Clear,360,2012-11-03 14:36:00
9:55 AM,51.8,35.6,54,30.10,10.0,NNW,6.9,-,N/A,,Clear,340,2012-11-03 14:55:00
10:15 AM,51.8,35.6,54,30.10,10.0,North,10.4,-,N/A,,Clear,350,2012-11-03 15:15:00
10:55 AM,53.6,35.6,51,30.10,10.0,North,6.9,-,N/A,,Clear,10,2012-11-03 15:55:00
11:15 AM,53.6,35.6,51,30.11,10.0,NNW,8.1,-,N/A,,Clear,340,2012-11-03 16:15:00
11:35 AM,55.4,35.6,47,30.11,10.0,NNW,5.8,-,N/A,,Clear,330,2012-11-03 16:35:00
11:55 AM,55.4,35.6,47,30.11,10.0,North,6.9,-,N/A,,Clear,360,2012-11-03 16:55:00
12:35 PM,57.2,35.6,44,30.11,10.0,North,8.1,-,N/A,,Clear,360,2012-11-03 17:35:00
12:55 PM,57.2,35.6,44,30.10,10.0,Calm,Calm,-,N/A,,Clear,0,2012-11-03 17:55:00
1:15 PM,60.8,37.4,42,30.09,10.0,North,8.1,-,N/A,,Clear,350,2012-11-03 18:15:00
1:35 PM,60.8,35.6,39,30.09,10.0,North,6.9,-,N/A,,Clear,10,2012-11-03 18:35:00
1:55 PM,60.8,37.4,42,30.09,10.0,North,5.8,-,N/A,,Clear,350,2012-11-03 18:55:00
2:35 PM,62.6,37.4,39,30.08,10.0,North,5.8,-,N/A,,Clear,10,2012-11-03 19:35:00
2:55 PM,62.6,37.4,39,30.08,10.0,NNW,6.9,-,N/A,,Clear,330,2012-11-03 19:55:00
3:15 PM,62.6,35.6,37,30.08,10.0,NW,11.5,-,N/A,,Clear,320,2012-11-03 20:15:00
3:35 PM,62.6,35.6,37,30.08,10.0,NNW,9.2,-,N/A,,Clear,340,2012-11-03 20:35:00
3:55 PM,62.6,35.6,37,30.09,10.0,NNW,9.2,-,N/A,,Clear,330,2012-11-03 20:55:00
4:15 PM,62.6,37.4,39,30.09,10.0,NNW,8.1,-,N/A,,Clear,340,2012-11-03 21:15:00
4:35 PM,62.6,35.6,37,30.10,10.0,North,8.1,-,N/A,,Clear,360,2012-11-03 21:35:00
4:55 PM,60.8,35.6,39,30.10,10.0,NNW,6.9,-,N/A,,Clear,340,2012-11-03 21:55:00
5:15 PM,60.8,35.6,39,30.10,10.0,NW,8.1,-,N/A,,Clear,320,2012-11-03 22:15:00
5:35 PM,60.8,35.6,39,30.10,10.0,North,9.2,-,N/A,,Clear,350,2012-11-03 22:35:00
5:55 PM,59.0,35.6,42,30.11,10.0,North,11.5,-,N/A,,Clear,360,2012-11-03 22:55:00
6:35 PM,55.4,35.6,47,30.11,10.0,NNE,8.1,-,N/A,,Clear,20,2012-11-03 23:35:00
6:55 PM,53.6,35.6,51,30.12,10.0,NNE,5.8,-,N/A,,Clear,20,2012-11-03 23:55:00
7:15 PM,53.6,33.8,47,30.12,10.0,NNE,6.9,-,N/A,,Clear,20,2012-11-04 00:15:00
7:35 PM,53.6,33.8,47,30.13,10.0,North,5.8,-,N/A,,Clear,10,2012-11-04 00:35:00
7:55 PM,51.8,33.8,50,30.13,10.0,NNE,5.8,-,N/A,,Clear,20,2012-11-04 00:55:00
8:15 PM,51.8,33.8,50,30.13,10.0,NNE,5.8,-,N/A,,Clear,20,2012-11-04 01:15:00
8:36 PM,50.0,33.8,54,30.13,10.0,NNE,5.8,-,N/A,,Clear,20,2012-11-04 01:36:00
8:55 PM,50.0,33.8,54,30.13,10.0,NNE,5.8,-,N/A,,Clear,30,2012-11-04 01:55:00
9:15 PM,48.2,33.8,58,30.13,10.0,NNE,5.8,-,N/A,,Clear,30,2012-11-04 02:15:00
9:55 PM,48.2,33.8,58,30.15,10.0,NNE,6.9,-,N/A,,Clear,20,2012-11-04 02:55:00
10:15 PM,46.4,35.6,66,30.15,6.0,NNE,6.9,-,N/A,,Clear,30,2012-11-04 03:15:00
11:15 PM,46.4,35.6,66,30.16,10.0,NNE,5.8,-,N/A,,Clear,30,2012-11-04 04:15:00
11:35 PM,44.6,35.6,71,30.16,10.0,NE,4.6,-,N/A,,Clear,40,2012-11-04 04:35:00